When you browse on this site, cookies collect data to enhance your experience and personalize the content and advertising you see.
Visit our Privacy Policy to learn more. By continuing to use the site, you agree to this use of cookies and data.
  • In Portugal
  • List of Countries
  • For 7 days
  • Water Temperature
  • Satellite Maps
  • Weather Map
  • Weather Widgets
  • user-avatar
    Login

    Hourly Weather Sankt Polten

    Today, 21 January, Monday

    Time Temperature Precipitation Wind Pressure Humidity
    00:00 -4°C° 0 mm 1 mps 738 mmHg 77%
    01:00 -6°C° 0 mm 1 mps 738 mmHg 77%
    02:00 -6°C° 0 mm 1 mps 738 mmHg 77%
    03:00 -6°C° 0 mm 1 mps 738 mmHg 78%
    04:00 -6°C° 0 mm 1 mps 738 mmHg 78%
    05:00 -6°C° 0 mm 1 mps 738 mmHg 78%
    06:00 -6°C° 0 mm 1 mps 738 mmHg 78%
    07:00 -6°C° 0 mm 1 mps 738 mmHg 79%
    08:00 -4°C° 0 mm 1 mps 738 mmHg 75%
    09:00 -4°C° 0 mm 0 mps 739 mmHg 71%
    10:00 -2°C° 0 mm 0 mps 739 mmHg 67%
    11:00 0°C° 0 mm 1 mps 738 mmHg 64%
    12:00 +1°C° 0 mm 1 mps 738 mmHg 60%
    13:00 +1°C° 0 mm 1 mps 738 mmHg 56%
    14:00 +1°C° 0 mm 1 mps 738 mmHg 59%
    15:00 0°C° 0 mm 1 mps 737 mmHg 62%
    16:00 0°C° 0 mm 1 mps 737 mmHg 65%
    17:00 -1°C° 0 mm 1 mps 737 mmHg 67%
    18:00 -2°C° 0 mm 1 mps 737 mmHg 69%
    19:00 -3°C° 0 mm 1 mps 737 mmHg 71%
    20:00 -3°C° 0 mm 1 mps 737 mmHg 71%
    21:00 -5°C° 0 mm 0 mps 737 mmHg 72%
    22:00 -5°C° 0 mm 0 mps 738 mmHg 73%
    23:00 -4°C° 0 mm 1 mps 737 mmHg 74%

    Tomorrow, 22 January, Tuesday

    Time Temperature Precipitation Wind Pressure Humidity
    00:00 -4°C° 0 mm 1 mps 737 mmHg 75%
    01:00 -4°C° 0 mm 1 mps 737 mmHg 76%
    02:00 -4°C° 0 mm 1 mps 736 mmHg 77%
    03:00 -4°C° 0 mm 1 mps 736 mmHg 78%
    04:00 -4°C° 0 mm 1 mps 735 mmHg 79%
    05:00 -4°C° 0 mm 1 mps 735 mmHg 79%
    06:00 -6°C° 0 mm 1 mps 735 mmHg 79%
    07:00 -6°C° 0 mm 1 mps 734 mmHg 80%
    08:00 -4°C° 0 mm 0 mps 734 mmHg 76%
    09:00 -3°C° 0 mm 0 mps 734 mmHg 73%
    10:00 -2°C° 0 mm 0 mps 734 mmHg 69%
    11:00 -1°C° 0 mm 0 mps 733 mmHg 67%
    12:00 +1°C° 0 mm 1 mps 732 mmHg 64%
    13:00 +2°C° 0 mm 1 mps 731 mmHg 61%
    14:00 +2°C° 0 mm 1 mps 730 mmHg 64%
    15:00 +1°C° 0 mm 1 mps 730 mmHg 68%
    16:00 -2°C° 0 mm 2 mps 729 mmHg 71%
    17:00 -3°C° 0 mm 2 mps 728 mmHg 74%
    18:00 -2°C° 0 mm 1 mps 728 mmHg 76%
    19:00 -3°C° 0 mm 1 mps 728 mmHg 79%
    20:00 -3°C° 0 mm 1 mps 727 mmHg 79%
    21:00 -3°C° 0 mm 1 mps 727 mmHg 79%
    22:00 -3°C° 0 mm 1 mps 727 mmHg 79%
    23:00 -3°C° 0 mm 1 mps 726 mmHg 81%

    Day after tomorrow, 23 January, Wednesday

    Time Temperature Precipitation Wind Pressure Humidity
    00:00 -3°C° 0 mm 1 mps 725 mmHg 82%
    01:00 -2°C° 0 mm 1 mps 725 mmHg 84%
    02:00 -2°C° 0 mm 1 mps 725 mmHg 86%
    03:00 -2°C° 0 mm 1 mps 724 mmHg 88%
    04:00 -2°C° 0 mm 1 mps 724 mmHg 90%
    05:00 -2°C° 0.1 mm 1 mps 724 mmHg 91%
    06:00 -2°C° 0.1 mm 1 mps 724 mmHg 91%
    07:00 -2°C° 0.1 mm 1 mps 723 mmHg 91%
    08:00 -2°C° 0 mm 1 mps 724 mmHg 89%
    09:00 -1°C° 0 mm 1 mps 724 mmHg 87%
    10:00 0°C° 0 mm 1 mps 724 mmHg 84%
    11:00 0°C° 0.1 mm 1 mps 724 mmHg 84%
    12:00 +1°C° 0.1 mm 1 mps 723 mmHg 83%
    13:00 +1°C° 0.1 mm 1 mps 723 mmHg 82%
    14:00 +1°C° 0.1 mm 1 mps 724 mmHg 85%
    15:00 0°C° 0.1 mm 1 mps 724 mmHg 87%
    16:00 0°C° 0.1 mm 1 mps 724 mmHg 90%
    17:00 0°C° 0.1 mm 1 mps 724 mmHg 91%
    18:00 -1°C° 0.1 mm 1 mps 725 mmHg 93%
    19:00 -1°C° 0.1 mm 1 mps 725 mmHg 94%
    20:00 -1°C° 0 mm 1 mps 726 mmHg 94%
    21:00 -1°C° 0 mm 1 mps 726 mmHg 93%
    22:00 -2°C° 0 mm 1 mps 727 mmHg 93%
    23:00 -2°C° 0 mm 1 mps 727 mmHg 93%

    24 January, Thursday

    Time Temperature Precipitation Wind Pressure Humidity
    00:00 -2°C° 0 mm 1 mps 727 mmHg 93%
    01:00 -2°C° 0 mm 1 mps 728 mmHg 92%
    02:00 -2°C° 0 mm 1 mps 728 mmHg 92%
    03:00 -3°C° 0 mm 0 mps 728 mmHg 93%
    04:00 -3°C° 0 mm 0 mps 728 mmHg 93%
    05:00 -3°C° 0 mm 0 mps 729 mmHg 92%
    06:00 -3°C° 0 mm 0 mps 730 mmHg 91%
    07:00 -3°C° 0 mm 0 mps 730 mmHg 90%
    08:00 -2°C° 0 mm 0 mps 731 mmHg 88%
    09:00 -1°C° 0 mm 0 mps 731 mmHg 85%
    10:00 +1°C° 0 mm 1 mps 732 mmHg 83%
    11:00 +1°C° 0 mm 1 mps 732 mmHg 81%
    12:00 +2°C° 0 mm 1 mps 732 mmHg 80%
    13:00 +2°C° 0 mm 1 mps 732 mmHg 78%
    14:00 +2°C° 0 mm 1 mps 732 mmHg 81%
    15:00 +2°C° 0 mm 1 mps 732 mmHg 84%
    16:00 +1°C° 0 mm 1 mps 732 mmHg 87%
    17:00 +1°C° 0 mm 1 mps 733 mmHg 88%
    18:00 +1°C° 0 mm 1 mps 733 mmHg 90%
    19:00 0°C° 0 mm 1 mps 734 mmHg 92%
    20:00 0°C° 0 mm 1 mps 734 mmHg 92%
    21:00 0°C° 0 mm 1 mps 734 mmHg 92%
    22:00 0°C° 0 mm 1 mps 735 mmHg 92%
    23:00 -2°C° 0.1 mm 2 mps 735 mmHg 92%

    25 January, Friday

    Time Temperature Precipitation Wind Pressure Humidity
    00:00 -2°C° 0.1 mm 2 mps 735 mmHg 91%
    01:00 -2°C° 0.1 mm 2 mps 735 mmHg 91%
    02:00 -2°C° 0 mm 2 mps 735 mmHg 90%
    03:00 -2°C° 0 mm 3 mps 735 mmHg 89%
    04:00 -2°C° 0 mm 3 mps 735 mmHg 89%
    05:00 -2°C° 0.1 mm 3 mps 735 mmHg 88%
    06:00 -2°C° 0.1 mm 2 mps 735 mmHg 88%
    07:00 -2°C° 0.1 mm 2 mps 736 mmHg 88%
    08:00 -2°C° 0 mm 3 mps 736 mmHg 85%
    09:00 -2°C° 0 mm 3 mps 736 mmHg 83%
    10:00 -2°C° 0 mm 4 mps 736 mmHg 80%
    11:00 -2°C° 0 mm 4 mps 736 mmHg 77%
    12:00 -1°C° 0 mm 4 mps 736 mmHg 75%
    13:00 -1°C° 0 mm 4 mps 736 mmHg 73%
    14:00 -1°C° 0 mm 4 mps 735 mmHg 75%
    15:00 -2°C° 0 mm 4 mps 735 mmHg 77%
    16:00 -1°C° 0 mm 3 mps 735 mmHg 79%
    17:00 -2°C° 0 mm 3 mps 735 mmHg 81%
    18:00 -4°C° 0 mm 3 mps 736 mmHg 83%
    19:00 -5°C° 0 mm 3 mps 736 mmHg 84%
    20:00 -5°C° 0 mm 3 mps 736 mmHg 84%
    21:00 -5°C° 0 mm 3 mps 736 mmHg 83%
    22:00 -5°C° 0 mm 3 mps 736 mmHg 83%
    23:00 -5°C° 0 mm 3 mps 736 mmHg 83%

    26 January, Saturday

    Time Temperature Precipitation Wind Pressure Humidity
    00:00 -5°C° 0 mm 3 mps 736 mmHg 83%
    01:00 -5°C° 0 mm 3 mps 735 mmHg 84%
    02:00 -5°C° 0 mm 3 mps 735 mmHg 82%
    03:00 -5°C° 0 mm 3 mps 734 mmHg 81%
    04:00 -4°C° 0 mm 4 mps 734 mmHg 80%
    05:00 -4°C° 0 mm 4 mps 734 mmHg 78%
    06:00 -3°C° 0 mm 4 mps 734 mmHg 77%
    07:00 -3°C° 0 mm 4 mps 734 mmHg 75%
    08:00 -2°C° 0 mm 4 mps 733 mmHg 74%
    09:00 -1°C° 0 mm 4 mps 733 mmHg 74%
    10:00 0°C° 0 mm 4 mps 733 mmHg 73%
    11:00 0°C° 0 mm 4 mps 733 mmHg 73%
    12:00 +1°C° 0 mm 4 mps 732 mmHg 74%
    13:00 +3°C° 0 mm 4 mps 732 mmHg 74%
    14:00 +3°C° 0 mm 3 mps 731 mmHg 77%
    15:00 +2°C° 0 mm 3 mps 731 mmHg 80%
    16:00 +3°C° 0 mm 2 mps 730 mmHg 83%
    17:00 +2°C° 0 mm 2 mps 730 mmHg 84%
    18:00 +2°C° 0 mm 2 mps 730 mmHg 85%
    19:00 +1°C° 0 mm 2 mps 729 mmHg 86%
    20:00 +2°C° 0 mm 1 mps 729 mmHg 86%
    21:00 +2°C° 0 mm 1 mps 729 mmHg 86%
    22:00 +2°C° 0 mm 1 mps 728 mmHg 86%
    23:00 +2°C° 0 mm 1 mps 728 mmHg 86%
    Show more